TimePDT,TemperatureF,Dew PointF,Humidity,Sea Level PressureIn,VisibilityMPH,Wind Direction,Wind SpeedMPH,Gust SpeedMPH,PrecipitationIn,Events,Conditions,WindDirDegrees,DateUTC
12:56 AM,64.9,25.0,22,29.86,10.0,Calm,Calm,-,N/A,,Scattered Clouds,0,2013-04-02 07:56:00
1:56 AM,64.9,26.1,23,29.86,10.0,SSW,5.8,-,N/A,,Mostly Cloudy,210,2013-04-02 08:56:00
2:56 AM,60.1,27.0,28,29.88,10.0,South,11.5,-,N/A,,Mostly Cloudy,190,2013-04-02 09:56:00
3:56 AM,59.0,28.0,31,29.88,10.0,SSW,8.1,-,N/A,,Mostly Cloudy,200,2013-04-02 10:56:00
4:56 AM,57.9,27.0,31,29.88,10.0,SSW,9.2,-,N/A,,Mostly Cloudy,200,2013-04-02 11:56:00
5:23 AM,57.2,28.4,33,29.94,10.0,SW,9.2,-,N/A,,Scattered Clouds,220,2013-04-02 12:23:00
5:56 AM,60.1,28.0,30,29.90,10.0,Calm,Calm,-,N/A,,Partly Cloudy,0,2013-04-02 12:56:00
6:56 AM,57.9,28.9,33,29.92,10.0,WSW,6.9,-,N/A,,Partly Cloudy,250,2013-04-02 13:56:00
7:56 AM,60.1,30.0,32,29.93,10.0,South,9.2,-,N/A,,Partly Cloudy,190,2013-04-02 14:56:00
8:56 AM,64.9,28.0,25,29.93,10.0,WSW,4.6,-,N/A,,Partly Cloudy,250,2013-04-02 15:56:00
9:56 AM,69.1,27.0,21,29.93,10.0,NNW,15.0,19.6,N/A,,Partly Cloudy,340,2013-04-02 16:56:00
10:56 AM,72.0,28.0,20,29.93,10.0,North,17.3,23.0,N/A,,Partly Cloudy,350,2013-04-02 17:56:00
11:56 AM,73.0,28.0,19,29.92,10.0,NNE,15.0,20.7,N/A,,Partly Cloudy,30,2013-04-02 18:56:00
12:56 PM,73.9,28.0,18,29.90,10.0,NNW,10.4,-,N/A,,Partly Cloudy,330,2013-04-02 19:56:00
1:56 PM,75.9,28.0,17,29.88,10.0,Variable,4.6,-,N/A,,Partly Cloudy,0,2013-04-02 20:56:00
2:56 PM,77.0,28.0,17,29.86,10.0,Variable,6.9,-,N/A,,Partly Cloudy,0,2013-04-02 21:56:00
3:56 PM,78.1,28.9,17,29.85,10.0,SSE,5.8,-,N/A,,Scattered Clouds,160,2013-04-02 22:56:00
4:56 PM,77.0,28.9,17,29.85,10.0,Calm,Calm,-,N/A,,Scattered Clouds,0,2013-04-02 23:56:00
5:56 PM,77.0,28.0,17,29.84,10.0,Variable,5.8,-,N/A,,Scattered Clouds,0,2013-04-03 00:56:00
6:56 PM,75.9,28.0,17,29.85,10.0,South,4.6,-,N/A,,Scattered Clouds,190,2013-04-03 01:56:00
7:56 PM,75.0,28.0,18,29.86,10.0,SSW,6.9,-,N/A,,Partly Cloudy,200,2013-04-03 02:56:00
8:56 PM,72.0,28.9,20,29.88,10.0,SSW,10.4,-,N/A,,Clear,210,2013-04-03 03:56:00
9:56 PM,69.1,30.0,23,29.90,10.0,South,5.8,-,N/A,,Partly Cloudy,180,2013-04-03 04:56:00
10:56 PM,68.0,30.0,24,29.91,10.0,SSW,5.8,-,N/A,,Scattered Clouds,200,2013-04-03 05:56:00
11:56 PM,69.1,32.0,25,29.93,10.0,Calm,Calm,-,N/A,,Scattered Clouds,0,2013-04-03 06:56:00